Weather History for Charlevoix, MI

Change the Weather History Date:

Thursday, September 27, 2012

  Actual Average Record
Temperature  
Mean Temperature 50 °F -  
Max Temperature 57 °F 71 °F 77 °F (2008)
Min Temperature 42 °F 53 °F 39 °F (2010)
Degree Days  
Heating Degree Days 16    
Moisture  
Dew Point 42 °F    
Average Humidity 75    
Maximum Humidity 97    
Minimum Humidity 55    
Precipitation  
Precipitation 0.00 in - - ()
Sea Level Pressure  
Sea Level Pressure 30.28 in    
Wind  
Wind Speed 4 mph (NE)    
Max Wind Speed 9 mph    
Max Gust Speed -    
Visibility 10 miles    
Events      
Averages and records for this station are not official NWS values.
T = Trace of Precipitation, MM = Missing Value Source: NWS Daily Summary

Daily Weather History Graph

Daily Weather History Graph

Search for Another Location

Airport:

Trip Planner

Search our weather history database for the weather conditions in past years. The results will help you decide how hot, cold, wet, or windy it might be!

Date:

Astronomy

Sep. 27, 2012 Rise Set
Actual Time 7:34 AM EDT 7:28 PM EDT
Civil Twilight 7:05 AM EDT 7:57 PM EDT
Nautical Twilight 6:31 AM EDT 8:31 PM EDT
Astronomical Twilight 5:56 AM EDT 9:06 PM EDT
Moon 6:02 PM EDT (9/27) 4:57 AM EDT (9/27)
Length of Visible Light 12h 52m
Length of Day
11h 53m
Waxing Gibbous, 94% of the Moon is Illuminated
Sep 27
Waxing Gibbous
Sep 29
Full
Oct 8
Last Quarter
Oct 15
New
Oct 21
First Quarter

Hourly Weather History & Observations

Time (EDT) Temp. Windchill Dew Point Humidity Pressure Visibility Wind Dir Wind Speed Gust Speed Precip Events Conditions
12:14 AM 52.0 °F - 41.2 °F 67% 30.24 in 10.0 mi North 5.8 mph - N/A   Clear
12:34 AM 52.2 °F - 40.1 °F 64% 30.24 in 10.0 mi NNE 5.8 mph - N/A   Scattered Clouds
12:54 AM 52.0 °F - 39.2 °F 62% 30.24 in 10.0 mi North 5.8 mph - N/A   Scattered Clouds
1:14 AM 51.8 °F - 38.5 °F 60% 30.24 in 10.0 mi Calm Calm - N/A   Clear
1:34 AM 46.4 °F - 42.6 °F 87% 30.25 in 10.0 mi Calm Calm - N/A   Clear
1:54 AM 45.9 °F - 42.3 °F 87% 30.25 in 10.0 mi Calm Calm - N/A   Scattered Clouds
2:14 AM 46.9 °F - 42.8 °F 86% 30.26 in 10.0 mi SSE 5.8 mph - N/A   Scattered Clouds
2:34 AM 44.4 °F - 41.7 °F 90% 30.27 in 10.0 mi Calm Calm - N/A   Scattered Clouds
3:14 AM 44.6 °F 43.1 °F 41.2 °F 88% 30.27 in 10.0 mi SE 3.5 mph - N/A   Scattered Clouds
3:34 AM 43.0 °F 40.3 °F 40.3 °F 90% 30.27 in 10.0 mi SE 4.6 mph - N/A   Clear
3:54 AM 42.1 °F 38.4 °F 39.9 °F 92% 30.27 in 10.0 mi SSE 5.8 mph - N/A   Scattered Clouds
4:14 AM 43.7 °F - 40.5 °F 88% 30.27 in 10.0 mi Calm Calm - N/A   Scattered Clouds
4:34 AM 43.7 °F - 40.5 °F 88% 30.27 in 10.0 mi Calm Calm - N/A   Mostly Cloudy
4:54 AM 43.9 °F 41.3 °F 40.6 °F 88% 30.28 in 10.0 mi SSE 4.6 mph - N/A   Mostly Cloudy
5:14 AM 43.9 °F 42.3 °F 40.6 °F 88% 30.28 in 10.0 mi SE 3.5 mph - N/A   Mostly Cloudy
5:34 AM 44.6 °F - 40.8 °F 87% 30.29 in 10.0 mi Calm Calm - N/A   Mostly Cloudy
5:54 AM 45.0 °F 43.5 °F 41.0 °F 86% 30.29 in 10.0 mi ESE 3.5 mph - N/A   Overcast
6:14 AM 44.6 °F 43.1 °F 41.4 °F 88% 30.30 in 10.0 mi ESE 3.5 mph - N/A   Overcast
6:34 AM 44.4 °F - 41.4 °F 89% 30.30 in 10.0 mi Calm Calm - N/A   Overcast
6:54 AM 44.2 °F 42.7 °F 41.0 °F 88% 30.30 in 10.0 mi SSE 3.5 mph - N/A   Overcast
7:14 AM 44.4 °F 42.9 °F 41.0 °F 88% 30.31 in 10.0 mi SE 3.5 mph - N/A   Overcast
7:34 AM 44.6 °F 43.1 °F 41.0 °F 87% 30.31 in 10.0 mi SE 3.5 mph - N/A   Overcast
7:54 AM 44.6 °F 43.1 °F 41.0 °F 87% 30.32 in 10.0 mi SE 3.5 mph - N/A   Mostly Cloudy
8:14 AM 44.6 °F - 41.2 °F 88% 30.32 in 10.0 mi Calm Calm - N/A   Mostly Cloudy
8:35 AM 46.2 °F 45.0 °F 41.4 °F 83% 30.32 in 10.0 mi SE 3.5 mph - N/A   Overcast
8:54 AM 47.3 °F - 41.4 °F 80% 30.32 in 10.0 mi ESE 4.6 mph - N/A   Mostly Cloudy
9:14 AM 48.2 °F - 41.2 °F 77% 30.32 in 10.0 mi ESE 4.6 mph - N/A   Mostly Cloudy
9:35 AM 49.6 °F - 41.9 °F 75% 30.33 in 10.0 mi Calm Calm - N/A   Scattered Clouds
9:54 AM 50.9 °F - 42.3 °F 72% 30.33 in 10.0 mi Calm Calm - N/A   Scattered Clouds
10:14 AM 52.7 °F - 41.0 °F 64% 30.33 in 10.0 mi ESE 4.6 mph - N/A   Scattered Clouds
10:34 AM 53.6 °F - 40.5 °F 61% 30.33 in 10.0 mi East 5.8 mph - N/A   Clear
10:54 AM 54.3 °F - 40.8 °F 60% 30.33 in 10.0 mi Calm Calm - N/A   Clear
11:14 AM 54.7 °F - 41.7 °F 62% 30.33 in 10.0 mi East 3.5 mph - N/A   Scattered Clouds
11:34 AM 55.4 °F - 41.0 °F 58% 30.33 in 10.0 mi NE 3.5 mph - N/A   Mostly Cloudy
11:54 AM 55.9 °F - 41.4 °F 58% 30.32 in 10.0 mi NNW 5.8 mph - N/A   Scattered Clouds
12:14 PM 53.8 °F - 40.8 °F 62% 30.33 in 10.0 mi North 5.8 mph - N/A   Scattered Clouds
12:34 PM 54.3 °F - 42.1 °F 63% 30.32 in 10.0 mi North 5.8 mph - N/A   Scattered Clouds
12:54 PM 56.3 °F - 41.7 °F 58% 30.31 in 10.0 mi North 6.9 mph - N/A   Clear
1:15 PM 56.5 °F - 42.3 °F 59% 30.31 in 10.0 mi NNW 5.8 mph - N/A   Clear
1:34 PM 57.0 °F - 41.9 °F 57% 30.31 in 10.0 mi North 6.9 mph - N/A   Clear
1:54 PM 56.8 °F - 42.4 °F 59% 30.30 in 10.0 mi NNW 5.8 mph - N/A   Clear
2:15 PM 57.4 °F - 42.6 °F 58% 30.29 in 10.0 mi NNW 5.8 mph - N/A   Clear
2:34 PM 57.2 °F - 41.4 °F 55% 30.28 in 10.0 mi North 5.8 mph - N/A   Clear
2:54 PM 57.0 °F - 41.9 °F 57% 30.27 in 10.0 mi NNW 5.8 mph - N/A   Clear
3:14 PM 57.2 °F - 42.4 °F 58% 30.27 in 10.0 mi NNW 6.9 mph - N/A   Clear
3:34 PM 57.4 °F - 42.1 °F 57% 30.27 in 10.0 mi NNW 6.9 mph - N/A   Clear
3:54 PM 57.0 °F - 41.5 °F 56% 30.26 in 10.0 mi North 5.8 mph - N/A   Clear
4:14 PM 57.7 °F - 42.8 °F 57% 30.25 in 10.0 mi NNW 5.8 mph - N/A   Clear
4:34 PM 57.2 °F - 41.9 °F 57% 30.25 in 10.0 mi North 8.1 mph - N/A   Clear
4:54 PM 57.2 °F - 42.3 °F 57% 30.25 in 10.0 mi North 9.2 mph - N/A   Clear
5:14 PM 57.2 °F - 42.6 °F 58% 30.24 in 10.0 mi NNW 8.1 mph - N/A   Clear
5:34 PM 57.4 °F - 43.3 °F 59% 30.24 in 10.0 mi NNW 6.9 mph - N/A   Clear
5:54 PM 56.7 °F - 43.0 °F 60% 30.24 in 10.0 mi NNW 8.1 mph - N/A   Clear
6:34 PM 56.1 °F - 43.3 °F 62% 30.25 in 10.0 mi NNW 4.6 mph - N/A   Clear
6:55 PM 55.4 °F - 43.2 °F 63% 30.25 in 10.0 mi NW 4.6 mph - N/A   Clear
7:14 PM 54.5 °F - 43.2 °F 66% 30.25 in 10.0 mi NW 3.5 mph - N/A   Clear
7:34 PM 54.0 °F - 43.0 °F 66% 30.24 in 10.0 mi Calm Calm - N/A   Clear
7:55 PM 49.8 °F - 43.9 °F 80% 30.25 in 10.0 mi Calm Calm - N/A   Clear
8:14 PM 48.4 °F - 44.1 °F 85% 30.24 in 10.0 mi Calm Calm - N/A   Clear
8:34 PM 47.3 °F - 44.2 °F 89% 30.24 in 10.0 mi Calm Calm - N/A   Clear
8:55 PM 46.4 °F - 43.9 °F 91% 30.24 in 10.0 mi Calm Calm - N/A   Clear
9:14 PM 45.7 °F - 43.9 °F 93% 30.24 in 10.0 mi Calm Calm - N/A   Clear
9:34 PM 44.8 °F - 43.0 °F 93% 30.24 in 10.0 mi Calm Calm - N/A   Clear
9:54 PM 45.5 °F - 43.7 °F 93% 30.23 in 10.0 mi Calm Calm - N/A   Clear
10:14 PM 43.9 °F - 42.4 °F 95% 30.24 in 10.0 mi Calm Calm - N/A   Clear
10:34 PM 43.7 °F - 42.3 °F 95% 30.23 in 10.0 mi Calm Calm - N/A   Clear
10:54 PM 43.2 °F - 41.7 °F 95% 30.23 in 10.0 mi Calm Calm - N/A   Clear
11:14 PM 43.7 °F - 42.1 °F 94% 30.23 in 10.0 mi Calm Calm - N/A   Clear
11:34 PM 42.8 °F - 41.2 °F 94% 30.23 in 10.0 mi Calm Calm - N/A   Clear
11:55 PM 42.8 °F 41.1 °F 41.9 °F 97% 30.22 in 10.0 mi SE 3.5 mph - N/A   Clear